ONEWEB-0063, 45448

Orbit data source: Space-Track

ONEWEB-0063, 45448 is a payload satellite owned by One Web (UK) in LEO that was launched on Sat, 21 Mar 2020 UTC via a SOYUZ-2-1B launch vehicle from the Tyuratam Missile And Space Complex (TTMTR). Payload-class satellites include a variety of spacecraft equipped with specific instruments for various scientific and technological missions. These include communications satellites like Starlink; space stations such as the ISS; scientific satellites like the Hubble; Earth observation satellites from companies like Planet Labs, Umbra, and HawkEye 360; GPS; miniature CubeSats for education and research; and military/defense satellites.

Loading next visibility...
Identifier
45448, 2020-020AA
Orbit
LEO
Last TLE update
3 hours ago
Origin
Manufacturer
One Web
Mission
Operational Commercial Communications
Bus & Motor
ARROW, Unknown motor
Mass
148 kg wet, ~140 kg dry
Launch date (UTC)
2020-03-21 (5 years ago)
Launch vehicle
SOYUZ-2-1B
Launch site
Tyuratam Missile And Space Complex (TTMTR)
Object type
Payload
Rocket body
Debris
Shape & HBR
Trap Box + 2 Pan, 5 m
Radar Cross Section
2.957 m², Large (>1 m²)

Expand to show TLE details & history

TLE from 3 hours ago
0 ONEWEB-0063
1 45448U 20020AA  25163.51596904 -.00000262  00000-0 -77380-3 0  9995
2 45448  87.8840  94.7393 0002039  71.9416 288.1934 13.11416962254245
Epoch: 2025-06-12T12:22Z
TLE epoch observation values (Epoch: 2025-06-12T12:22:59.725Z)
Latitude
0.00001°
Longitude
7.90744°
Altitude
1,220.088 km
Speed
7.245 km/s
True Right ascension
06h 18m 57s
True Declination
0° 00' 00"
Sunlit
Object was in daylight at epoch
Visualization orbit readout
Latitude
-16.80022°
Longitude
-171.48012°
Altitude
1,225.147 km
Speed
7.241 km/s
Apparent Right ascension
16h 31m 04s
Apparent Declination
-32° 00' 49"
Sunlit
Object is in full shadow
Visualization observer readout
Local Sidereal Time
01:37:08
Azimuth
268.839° W
Elevation
-54.295°
Doppler factor
1
Orbital elements
Apogee altitude
1,216.349 km
Perigee altitude
1,213.253 km
Semi-major axis
7,592.938 km
Eccentricity
0.0002
Inclination
87.884°
RAAN
94.7393°
Arg. of periapsis
71.9416°
True anomaly
Unknown
Mean anomaly
288.1934°
Eccentric anomaly
Unknown
Mean motion
3.28041 °/min
Orbital period
109.74 mins
BSTAR
-0.0007738
Loading maneuver chart data...
Loading SW <> Apogee altitude chart data...
Loading historical data...
Loading historical data...
Loading historical data...
Loading historical data...
Loading historical data...
Loading historical data...
Loading historical data...

ONEWEB-0063 Visibility forecast

Observer location: undefined°, undefined°

Span
Click to sort rows by Start time (UTC) header in descending order
Start Az.
Max El. time (UTC)
Max El. Az.
Max El.
End time (UTC)
End Az.
5 mins2025-06-12 18:03:49.146Z88.295° E2025-06-12 18:05:49.146Z71.276° E12.999°2025-06-12 18:08:49.146Z46.253° ENE
13 mins2025-06-12 19:48:49.146Z174.251° S2025-06-12 19:54:49.146Z59.92° ENE44.705°2025-06-12 20:01:49.146Z2.434° NNE
6 mins2025-06-12 21:42:49.146Z263.38° W2025-06-12 21:45:49.146Z291.317° WNW16.036°2025-06-12 21:48:49.146Z317.773° NNW
12 mins2025-06-13 07:18:49.146Z7.97° NNE2025-06-13 07:24:49.146Z109.692° ESE42.301°2025-06-13 07:30:49.146Z168.535° S
8 mins2025-06-13 09:09:49.146Z321.092° NNW2025-06-13 09:13:49.146Z281.823° WNW20.103°2025-06-13 09:17:49.146Z245.037° WSW
|